User: anonymous   Login
Location: Unspecified
(33.2407°S, 0.0000°E)
Time: 22:20:23
(UTC+00:00)
Language:

PCSat - Orbit

View from above orbital plane
View from above orbital plane
View from above satellite
View from above satellite

Ground track
Ground track

The orbit data is extracted from the following two-line orbital elements,

1 26931U 01043C   19196.48757575 -.00000037  00000-0  17442-4 0  9996
2 26931  67.0519 294.5339 0007087 277.0936  82.9359 14.30546849928809
Epoch (UTC): 15 July 2019 11:42:06
Eccentricity: 0.0007087
inclination: 67.0519°
perigee height: 785 km
apogee height: 795 km
right ascension of ascending node: 294.5339°
argument of perigee: 277.0936°
revolutions per day: 14.30546849
mean anomaly at epoch: 82.9359°
orbit number at epoch: 92880

The dashed part of the orbit path shows where the satellite is in the earth's shadow,  

DLR